Location: Lourdes
(43.1000°N, 0.0500°W)
Time: 06:27:37
(UTC+00:00)

YAOGAN 1 - Pass Details

Date: 30 November 2020
Orbit: 618 x 620 km, 97.9° (Epoch: 27 January)

Event Time Altitude Azimuth Distance (km) Brightness Sun altitude
Rises 18:20:52 0° 155° (SSE) 2,882 5.9 -20.3°
Enters shadow 18:21:23 - 154° (SSE) 2,669 5.7 -20.4°
Exits shadow 18:28:52 35° 13° (NNE) 1,015 3.4 -21.8°
Drops below altitude 10° 18:31:32 10° 356° (N) 1,997 5.1 -22.2°
Sets 18:33:45 0° 352° (N) 2,908 6.0 -22.6°
